Home   Weather   Caversham   Past weeks

Flag for United Kingdom Past Weather in Caversham, England, United Kingdom — Yesterday and Last 2 Weeks

Now
44 °F

Quite cool.


Feels Like: 44 °F
Forecast: 39 / 58 °F
Wind: 2 mph from South

Location: Benson

Current Time: Apr 23, 2017 at 11:04:40 pm

Latest Report: Apr 23, 2017 at 10:00 pm


Visibility: 19 mi

Pressure: 30.20 "Hg

Humidity: 81%

Dew Point: 38 °F

Location of CavershamLocation

Past Weather in Caversham — Graph

°F

Caversham Temperature Yesterday

Maximum temperature yesterday: 59 °F (at 5:00 pm)
Minimum temperature yesterday: 40 °F (at 11:00 pm)
Average temperature yesterday: 52 °F

High & Low Weather Summary for the Past Weeks

 TemperatureHumidityPressure
High74 °F (Apr 9, 4:00 pm)100% (Apr 23, 2:00 am)30.64 "Hg (Apr 23, 2:00 am)
Low31 °F (Apr 18, 3:00 am)30% (Apr 19, 6:00 pm)29.99 "Hg (Apr 14, 6:00 pm)
Average49 °F70%30.28 "Hg
* Reported Apr 8 9:00 pm — Apr 23 9:00 pm, Caversham, Weather by CustomWeather, © 2017

Note: Actual official high and low records may vary slightly from our data, if they occured in-between our weather recording intervals... More about our weather records

Advertising

Caversham Weather History for the Previous 24 Hours

Scroll right to see more
 ConditionsComfort  
Time TempWeatherWind HumidityBarometerVisibility
9:00 pm
Sun, Apr 23
45 °FQuite cool.2 mph87%30.21 "Hg19 mi
8:00 pm54 °FCool.1 mph59%30.20 "Hg22 mi
7:00 pm56 °FRefreshingly cool.5 mph50%30.22 "Hg19 mi
6:00 pm58 °FRefreshingly cool.5 mph45%30.23 "Hg19 mi
5:00 pm58 °FRefreshingly cool.8 mph43%30.24 "Hg19 mi
4:00 pm56 °FRefreshingly cool.5 mph50%30.26 "Hg16 mi
3:00 pm56 °FPartly sunny.7 mph48%30.28 "Hg12 mi
2:00 pm56 °FPartly sunny.7 mph52%30.30 "Hg12 mi
1:00 pm54 °FPartly sunny.7 mph58%30.32 "Hg12 mi
12:00 pm54 °FScattered clouds.5 mph57%30.33 "Hg12 mi
11:00 am50 °FScattered clouds.3 mph71%30.34 "Hg47 mi
10:00 am50 °FScattered clouds.5 mph76%30.35 "Hg6 mi
9:00 am46 °FPartly sunny.2 mph85%30.36 "Hg6 mi
8:00 am44 °FHaze.No wind88%30.36 "Hg5 mi
7:00 am36 °FChilly.3 mph97%30.36 "Hg6 mi
6:00 am39 °FChilly.No wind95%30.35 "Hg7 mi
5:00 am40 °FChilly.1 mph95%30.36 "Hg6 mi
4:00 am38 °FChilly.No wind96%30.36 "Hg9 mi
3:00 am35 °FChilly.1 mph98%30.37 "Hg7 mi
2:00 am33 °FChilly.2 mph100%30.36 "Hg10 mi
1:00 am37 °FChilly.6 mph92%30.37 "Hg11 mi
12:00 am40 °FChilly.6 mph88%30.37 "Hg13 mi
11:00 pm
Sat, Apr 22
40 °FQuite cool.1 mph78%30.36 "Hg19 mi
Weather by CustomWeather, © 2017

See weather overviewHow to use our weather pages